User: anonymous   Login
Location: Unspecified
(0.0000°N, 0.0000°E)
Time: 02:13:37
(UTC+02:00)
Language:

Delta 2 Rocket - Orbit

View from above orbital plane
View from above orbital plane
View from above satellite
View from above satellite

Ground track
Ground track

The orbit data is extracted from the following two-line orbital elements,

1 20453U 90008B   16268.67215027  .00001849  00000-0  11043-3 0  9998
2 20453  35.6258 349.2029 0292584 121.3946 241.5733 14.82105346408775
Epoch (UTC): 24 September 2016 16:07:53
Eccentricity: 0.0292584
inclination: 35.6258°
perigee height: 418 km
apogee height: 827 km
right ascension of ascending node: 349.2029°
argument of perigee: 121.3946°
revolutions per day: 14.82105346
mean anomaly at epoch: 241.5733°
orbit number at epoch: 40877

The dashed part of the orbit path shows where the satellite is in the earth's shadow,  

DLR